Weather History for KTSP - January, 2013

Change the Weather History Date:

Wednesday, January 16, 2013

  Actual Average Record
Temperature  
Mean Temperature 42 °F -  
Max Temperature 53 °F 52 °F 64 °F (2014)
Min Temperature 30 °F 32 °F 24 °F (2012)
Degree Days  
Heating Degree Days 24    
Moisture  
Dew Point 16 °F    
Average Humidity 35    
Maximum Humidity 60    
Minimum Humidity 22    
Precipitation  
Precipitation 0.00 in - - ()
Sea Level Pressure  
Sea Level Pressure 30.36 in    
Wind  
Wind Speed 12 mph (ESE)    
Max Wind Speed 16 mph    
Max Gust Speed 23 mph    
Visibility 10 miles    
Events      
Averages and records for this station are not official NWS values.
T = Trace of Precipitation, MM = Missing Value Source: NWS Daily Summary

Daily Weather History Graph

Daily Weather History Graph

Search for Another Location

Airport or City:

Trip Planner

Search our weather history database for the weather conditions in past years. The results will help you decide how hot, cold, wet, or windy it might be!

Date:

Astronomy

Jan. 16, 2013 Rise Set
Actual Time 7:01 AM PST 5:06 PM PST
Civil Twilight 6:33 AM PST 5:33 PM PST
Nautical Twilight 6:02 AM PST 6:05 PM PST
Astronomical Twilight 5:32 AM PST 6:35 PM PST
Moon 9:54 AM PST (1/16) 10:47 PM PST (1/16)
Length of Visible Light 11h 00m
Length of Day
10h 05m
Waxing Crescent, 29% of the Moon is Illuminated
Jan 16
Waxing Crescent
Jan 18
First Quarter
Jan 26
Full
Feb 3
Last Quarter
Feb 9
New

Hourly Weather History & Observations

Time (PST) Temp. Windchill Dew Point Humidity Pressure Visibility Wind Dir Wind Speed Gust Speed Precip Events Conditions
12:15 AM 37.4 °F 29.8 °F 15.8 °F 41% 30.40 in 10.0 mi East 11.5 mph 16.1 mph N/A   Clear
12:35 AM 37.4 °F 29.3 °F 15.8 °F 41% 30.40 in 10.0 mi East 12.7 mph 18.4 mph N/A   Clear
12:55 AM 37.4 °F 30.3 °F 15.8 °F 41% 30.40 in 10.0 mi East 10.4 mph 17.3 mph N/A   Clear
1:15 AM 37.4 °F 28.9 °F 15.8 °F 41% 30.39 in 10.0 mi East 13.8 mph - N/A   Clear
2:15 AM 35.6 °F 27.5 °F 15.8 °F 44% 30.41 in 10.0 mi East 11.5 mph - N/A   Clear
2:35 AM 35.6 °F 26.6 °F 15.8 °F 44% 30.41 in 10.0 mi East 13.8 mph - N/A   Clear
2:55 AM 35.6 °F 27.1 °F 15.8 °F 44% 30.40 in 10.0 mi East 12.7 mph - N/A   Clear
3:35 AM 35.6 °F 26.2 °F 15.8 °F 44% 30.40 in 10.0 mi East 15.0 mph - N/A   Clear
3:55 AM 35.6 °F 28.0 °F 15.8 °F 44% 30.40 in 10.0 mi East 10.4 mph - N/A   Clear
4:15 AM 37.4 °F 31.4 °F 15.8 °F 41% 30.40 in 10.0 mi East 8.1 mph - N/A   Clear
4:35 AM 32.0 °F 23.6 °F 15.8 °F 51% 30.39 in 10.0 mi East 10.4 mph - N/A   Clear
4:55 AM 35.6 °F 27.5 °F 15.8 °F 44% 30.39 in 10.0 mi ESE 11.5 mph - N/A   Clear
5:15 AM 32.0 °F 22.5 °F 15.8 °F 51% 30.38 in 10.0 mi ESE 12.7 mph - N/A   Clear
5:35 AM 30.2 °F 20.2 °F 17.6 °F 60% 30.39 in 10.0 mi ESE 12.7 mph - N/A   Clear
5:55 AM 30.2 °F 20.8 °F 15.8 °F 55% 30.39 in 10.0 mi ESE 11.5 mph - N/A   Clear
6:15 AM 32.0 °F 22.1 °F 15.8 °F 51% 30.39 in 10.0 mi ESE 13.8 mph - N/A   Clear
6:35 AM 32.0 °F 22.5 °F 17.6 °F 55% 30.40 in 10.0 mi ESE 12.7 mph - N/A   Clear
6:55 AM 35.6 °F 27.1 °F 17.6 °F 48% 30.40 in 10.0 mi East 12.7 mph - N/A   Clear
7:15 AM 35.6 °F 27.1 °F 17.6 °F 48% 30.41 in 10.0 mi East 12.7 mph - N/A   Clear
7:35 AM 37.4 °F 30.3 °F 17.6 °F 45% 30.41 in 10.0 mi East 10.4 mph - N/A   Clear
7:55 AM 37.4 °F 29.3 °F 17.6 °F 45% 30.42 in 10.0 mi ESE 12.7 mph - N/A   Clear
8:15 AM 39.2 °F 32.5 °F 17.6 °F 42% 30.42 in 10.0 mi ESE 10.4 mph - N/A   Clear
8:35 AM 41.0 °F 33.5 °F 17.6 °F 39% 30.43 in 10.0 mi ESE 13.8 mph 18.4 mph N/A   Clear
8:55 AM 41.0 °F 33.9 °F 17.6 °F 39% 30.43 in 10.0 mi ESE 12.7 mph 18.4 mph N/A   Clear
9:15 AM 44.6 °F 38.1 °F 17.6 °F 34% 30.42 in 10.0 mi ESE 13.8 mph 20.7 mph N/A   Clear
9:35 AM 44.6 °F 37.8 °F 17.6 °F 34% 30.42 in 10.0 mi East 15.0 mph - N/A   Clear
9:55 AM 46.4 °F 39.8 °F 17.6 °F 32% 30.42 in 10.0 mi East 16.1 mph 21.9 mph N/A   Clear
10:15 AM 46.4 °F 40.4 °F 17.6 °F 32% 30.41 in 9.0 mi East 13.8 mph 23.0 mph N/A   Clear
10:35 AM 48.2 °F - 17.6 °F 30% 30.40 in 7.0 mi ESE 15.0 mph - N/A   Clear
10:55 AM 48.2 °F - 17.6 °F 30% 30.39 in 10.0 mi East 12.7 mph - N/A   Clear
11:15 AM 50.0 °F - 17.6 °F 28% 30.38 in 8.0 mi East 15.0 mph 21.9 mph N/A   Clear
11:35 AM 50.0 °F - 17.6 °F 28% 30.37 in 10.0 mi ESE 15.0 mph 20.7 mph N/A   Clear
11:55 AM 50.0 °F - 17.6 °F 28% 30.35 in 10.0 mi East 13.8 mph - N/A   Clear
12:15 PM 50.0 °F - 17.6 °F 28% 30.34 in 9.0 mi East 15.0 mph - N/A   Clear
12:35 PM 51.8 °F - 17.6 °F 26% 30.33 in 9.0 mi ESE 16.1 mph 19.6 mph N/A   Clear
12:55 PM 53.6 °F - 17.6 °F 24% 30.32 in 10.0 mi East 13.8 mph 21.9 mph N/A   Clear
1:15 PM 53.6 °F - 17.6 °F 24% 30.31 in 10.0 mi ESE 13.8 mph 19.6 mph N/A   Clear
1:55 PM 53.6 °F - 15.8 °F 22% 30.31 in 9.0 mi ESE 11.5 mph - N/A   Clear
2:15 PM 53.6 °F - 15.8 °F 22% 30.31 in 10.0 mi SE 10.4 mph 16.1 mph N/A   Clear
2:35 PM 53.6 °F - 15.8 °F 22% 30.31 in 10.0 mi SE 11.5 mph 17.3 mph N/A   Clear
2:55 PM 53.6 °F - 15.8 °F 22% 30.31 in 10.0 mi SE 12.7 mph 17.3 mph N/A   Clear
3:15 PM 53.6 °F - 15.8 °F 22% 30.31 in 10.0 mi SE 11.5 mph - N/A   Clear
3:35 PM 51.8 °F - 15.8 °F 24% 30.31 in 10.0 mi SE 10.4 mph 16.1 mph N/A   Clear
3:55 PM 51.8 °F - 15.8 °F 24% 30.32 in 10.0 mi East 9.2 mph - N/A   Clear
4:15 PM 50.0 °F - 15.8 °F 26% 30.32 in 10.0 mi East 8.1 mph - N/A   Clear
4:35 PM 48.2 °F - 15.8 °F 27% 30.32 in 10.0 mi East 9.2 mph - N/A   Clear
4:55 PM 46.4 °F 41.9 °F 15.8 °F 29% 30.33 in 10.0 mi East 9.2 mph - N/A   Clear
5:15 PM 44.6 °F 39.2 °F 15.8 °F 31% 30.33 in 10.0 mi East 10.4 mph - N/A   Clear
5:35 PM 42.8 °F 37.0 °F 14.0 °F 31% 30.33 in 10.0 mi East 10.4 mph - N/A   Clear
5:55 PM 42.8 °F 37.5 °F 14.0 °F 31% 30.33 in 10.0 mi East 9.2 mph - N/A   Clear
6:15 PM 41.0 °F 34.3 °F 14.0 °F 33% 30.33 in 10.0 mi East 11.5 mph - N/A   Clear
6:35 PM 41.0 °F 33.9 °F 14.0 °F 33% 30.34 in 10.0 mi East 12.7 mph - N/A   Clear
6:55 PM 42.8 °F 38.0 °F 14.0 °F 31% 30.34 in 10.0 mi East 8.1 mph - N/A   Clear
7:15 PM 41.0 °F 34.7 °F 14.0 °F 33% 30.34 in 10.0 mi East 10.4 mph - N/A   Clear
7:55 PM 42.8 °F 36.6 °F 12.2 °F 29% 30.33 in 10.0 mi East 11.5 mph - N/A   Clear
8:15 PM 44.6 °F 39.2 °F 12.2 °F 27% 30.33 in 10.0 mi East 10.4 mph 17.3 mph N/A   Clear
8:35 PM 44.6 °F 40.2 °F 10.4 °F 25% 30.34 in 10.0 mi East 8.1 mph - N/A   Clear
8:55 PM 44.6 °F 38.8 °F 12.2 °F 27% 30.33 in 10.0 mi East 11.5 mph - N/A   Clear
9:15 PM 44.6 °F 38.1 °F 12.2 °F 27% 30.33 in 10.0 mi East 13.8 mph 17.3 mph N/A   Clear
9:35 PM 41.0 °F 33.9 °F 12.2 °F 31% 30.33 in 10.0 mi East 12.7 mph - N/A   Clear
9:55 PM 41.0 °F 34.3 °F 12.2 °F 31% 30.32 in 10.0 mi East 11.5 mph - N/A   Clear
10:15 PM 42.8 °F 35.8 °F 12.2 °F 29% 30.32 in 10.0 mi East 13.8 mph 17.3 mph N/A   Clear
10:35 PM 42.8 °F 35.1 °F 12.2 °F 29% 30.32 in 10.0 mi East 16.1 mph 20.7 mph N/A   Clear
10:55 PM 42.8 °F 36.6 °F 12.2 °F 29% 30.32 in 10.0 mi East 11.5 mph 20.7 mph N/A   Clear
11:15 PM 41.0 °F 33.9 °F 12.2 °F 31% 30.32 in 10.0 mi East 12.7 mph 18.4 mph N/A   Clear
11:35 PM 41.0 °F 33.9 °F 12.2 °F 31% 30.32 in 10.0 mi East 12.7 mph 18.4 mph N/A   Clear
11:55 PM 42.8 °F 35.4 °F 12.2 °F 29% 30.32 in 10.0 mi ESE 15.0 mph - N/A   Clear